When you browse on this site, cookies collect data to enhance your experience and personalize the content and advertising you see.
Visit our Privacy Policy to learn more. By continuing to use the site, you agree to this use of cookies and data.
  • In Spain
  • List of Countries
  • For 7 days
  • Water Temperature
  • Weather Map
  • Weather Widgets
  • user-avatar
    Login

    Hourly Weather Cobán

    Today, 27 February, Thursday

    Time Temperature Precipitation Wind Pressure Humidity
    00:00 +18°C° 1.5 mm 1 mps 656 mmHg 99%
    01:00 +18°C° 4.1 mm 1 mps 656 mmHg 99%
    02:00 +17°C° 4.1 mm 2 mps 656 mmHg 99%
    03:00 +17°C° 4.1 mm 2 mps 656 mmHg 99%
    04:00 +16°C° 3.1 mm 2 mps 656 mmHg 99%
    05:00 +15°C° 3.1 mm 2 mps 656 mmHg 98%
    06:00 +15°C° 3.1 mm 2 mps 656 mmHg 98%
    07:00 +14°C° 1.3 mm 2 mps 656 mmHg 98%
    08:00 +14°C° 1.3 mm 2 mps 657 mmHg 98%
    09:00 +14°C° 1.3 mm 2 mps 657 mmHg 98%
    10:00 +14°C° 0.9 mm 2 mps 657 mmHg 97%
    11:00 +14°C° 0.9 mm 2 mps 657 mmHg 95%
    12:00 +14°C° 0.9 mm 2 mps 657 mmHg 94%
    13:00 +14°C° 0.2 mm 2 mps 657 mmHg 94%
    14:00 +14°C° 0.2 mm 1 mps 657 mmHg 94%
    15:00 +14°C° 0.2 mm 1 mps 656 mmHg 93%
    16:00 +14°C° 0.1 mm 1 mps 656 mmHg 94%
    17:00 +14°C° 0.1 mm 1 mps 656 mmHg 95%
    18:00 +13°C° 0.1 mm 1 mps 656 mmHg 96%
    19:00 +13°C° 0 mm 1 mps 657 mmHg 97%
    20:00 +13°C° 0 mm 1 mps 657 mmHg 97%
    21:00 +13°C° 0 mm 1 mps 658 mmHg 98%
    22:00 +13°C° 0 mm 1 mps 658 mmHg 98%
    23:00 +13°C° 0 mm 1 mps 658 mmHg 98%

    Tomorrow, 28 February, Friday

    Time Temperature Precipitation Wind Pressure Humidity
    00:00 +13°C° 0 mm 1 mps 658 mmHg 98%
    01:00 +13°C° 0.1 mm 1 mps 657 mmHg 98%
    02:00 +13°C° 0.1 mm 1 mps 657 mmHg 98%
    03:00 +13°C° 0.1 mm 1 mps 657 mmHg 98%
    04:00 +13°C° 0.1 mm 1 mps 657 mmHg 98%
    05:00 +13°C° 0.1 mm 1 mps 657 mmHg 98%
    06:00 +13°C° 0.1 mm 1 mps 657 mmHg 98%
    07:00 +13°C° 0 mm 1 mps 657 mmHg 96%
    08:00 +13°C° 0 mm 1 mps 658 mmHg 95%
    09:00 +14°C° 0 mm 1 mps 658 mmHg 93%
    10:00 +14°C° 0 mm 1 mps 658 mmHg 91%
    11:00 +15°C° 0 mm 1 mps 658 mmHg 88%
    12:00 +15°C° 0 mm 1 mps 658 mmHg 86%
    13:00 +15°C° 0 mm 1 mps 657 mmHg 85%
    14:00 +15°C° 0 mm 1 mps 657 mmHg 85%
    15:00 +16°C° 0 mm 1 mps 657 mmHg 84%
    16:00 +15°C° 0 mm 1 mps 657 mmHg 88%
    17:00 +14°C° 0 mm 1 mps 657 mmHg 91%
    18:00 +13°C° 0 mm 1 mps 657 mmHg 95%
    19:00 +13°C° 0 mm 1 mps 658 mmHg 95%
    20:00 +13°C° 0 mm 1 mps 658 mmHg 96%
    21:00 +13°C° 0 mm 1 mps 658 mmHg 96%
    22:00 +12°C° 0.1 mm 1 mps 658 mmHg 96%
    23:00 +12°C° 0.1 mm 1 mps 658 mmHg 96%

    Day after tomorrow, 29 February, Saturday

    Time Temperature Precipitation Wind Pressure Humidity
    00:00 +12°C° 0.1 mm 1 mps 658 mmHg 97%
    01:00 +12°C° 0.1 mm 1 mps 658 mmHg 97%
    02:00 +12°C° 0.1 mm 1 mps 657 mmHg 97%
    03:00 +12°C° 0.1 mm 1 mps 657 mmHg 97%
    04:00 +11°C° 0 mm 0 mps 657 mmHg 97%
    05:00 +11°C° 0 mm 0 mps 657 mmHg 97%
    06:00 +11°C° 0 mm 0 mps 657 mmHg 98%
    07:00 +13°C° 0.1 mm 1 mps 658 mmHg 96%
    08:00 +13°C° 0.1 mm 1 mps 658 mmHg 94%
    09:00 +14°C° 0.1 mm 1 mps 659 mmHg 93%
    10:00 +14°C° 0.4 mm 1 mps 658 mmHg 93%
    11:00 +14°C° 0.4 mm 1 mps 658 mmHg 94%
    12:00 +14°C° 0.4 mm 1 mps 658 mmHg 94%
    13:00 +14°C° 0 mm 1 mps 657 mmHg 92%
    14:00 +15°C° 0 mm 1 mps 657 mmHg 90%
    15:00 +15°C° 0 mm 1 mps 656 mmHg 87%
    16:00 +15°C° 0 mm 1 mps 656 mmHg 90%
    17:00 +14°C° 0 mm 1 mps 656 mmHg 92%
    18:00 +14°C° 0 mm 1 mps 656 mmHg 95%
    19:00 +13°C° 0 mm 1 mps 657 mmHg 95%
    20:00 +13°C° 0 mm 1 mps 657 mmHg 95%
    21:00 +12°C° 0 mm 0 mps 658 mmHg 96%
    22:00 +11°C° 0 mm 0 mps 657 mmHg 96%
    23:00 +11°C° 0 mm 0 mps 657 mmHg 97%

    1 March, Sunday

    Time Temperature Precipitation Wind Pressure Humidity
    00:00 +10°C° 0 mm 0 mps 656 mmHg 97%
    01:00 +10°C° 0 mm 0 mps 656 mmHg 97%
    02:00 +10°C° 0 mm 0 mps 656 mmHg 97%
    03:00 +10°C° 0 mm 0 mps 655 mmHg 96%
    04:00 +11°C° 0 mm 1 mps 655 mmHg 96%
    05:00 +11°C° 0 mm 1 mps 655 mmHg 97%
    06:00 +11°C° 0 mm 1 mps 655 mmHg 97%
    07:00 +13°C° 0 mm 1 mps 656 mmHg 87%
    08:00 +16°C° 0 mm 1 mps 657 mmHg 78%
    09:00 +17°C° 0 mm 0 mps 658 mmHg 68%
    10:00 +21°C° 0 mm 1 mps 658 mmHg 63%
    11:00 +23°C° 0 mm 1 mps 658 mmHg 57%
    12:00 +24°C° 0 mm 2 mps 658 mmHg 52%
    13:00 +24°C° 0 mm 2 mps 657 mmHg 54%
    14:00 +24°C° 0 mm 2 mps 656 mmHg 57%
    15:00 +24°C° 0 mm 2 mps 655 mmHg 59%
    16:00 +21°C° 0 mm 2 mps 655 mmHg 68%
    17:00 +20°C° 0 mm 1 mps 654 mmHg 78%
    18:00 +18°C° 0 mm 1 mps 654 mmHg 87%
    19:00 +16°C° 0 mm 1 mps 655 mmHg 90%
    20:00 +16°C° 0 mm 1 mps 655 mmHg 93%
    21:00 +14°C° 0 mm 0 mps 655 mmHg 95%
    22:00 +13°C° 0 mm 0 mps 655 mmHg 96%
    23:00 +14°C° 0 mm 1 mps 655 mmHg 96%

    2 March, Monday

    Time Temperature Precipitation Wind Pressure Humidity
    00:00 +13°C° 0 mm 1 mps 654 mmHg 96%
    01:00 +13°C° 0 mm 1 mps 654 mmHg 96%
    02:00 +13°C° 0 mm 1 mps 653 mmHg 96%
    03:00 +12°C° 0 mm 1 mps 653 mmHg 96%
    04:00 +12°C° 0 mm 1 mps 653 mmHg 96%
    05:00 +12°C° 0 mm 1 mps 653 mmHg 95%
    06:00 +12°C° 0 mm 1 mps 653 mmHg 95%
    07:00 +15°C° 0 mm 1 mps 654 mmHg 83%
    08:00 +17°C° 0 mm 0 mps 655 mmHg 71%
    09:00 +20°C° 0 mm 0 mps 657 mmHg 59%
    10:00 +24°C° 0 mm 1 mps 657 mmHg 52%
    11:00 +26°C° 0 mm 1 mps 657 mmHg 46%
    12:00 +28°C° 0 mm 1 mps 656 mmHg 39%
    13:00 +28°C° 0 mm 1 mps 656 mmHg 42%
    14:00 +28°C° 0 mm 1 mps 655 mmHg 45%
    15:00 +27°C° 0 mm 2 mps 654 mmHg 48%
    16:00 +25°C° 0 mm 1 mps 653 mmHg 60%
    17:00 +23°C° 0 mm 1 mps 653 mmHg 73%
    18:00 +20°C° 0 mm 1 mps 652 mmHg 85%
    19:00 +19°C° 0 mm 1 mps 653 mmHg 89%
    20:00 +18°C° 0 mm 1 mps 653 mmHg 93%
    21:00 +16°C° 0 mm 1 mps 653 mmHg 97%
    22:00 +16°C° 0 mm 1 mps 653 mmHg 96%
    23:00 +15°C° 0 mm 1 mps 653 mmHg 96%

    3 March, Tuesday

    Time Temperature Precipitation Wind Pressure Humidity
    00:00 +15°C° 0 mm 1 mps 653 mmHg 95%
    01:00 +15°C° 0 mm 1 mps 652 mmHg 95%
    02:00 +15°C° 0 mm 1 mps 652 mmHg 95%
    03:00 +15°C° 0 mm 1 mps 651 mmHg 95%
    04:00 +15°C° 0 mm 1 mps 651 mmHg 94%
    05:00 +14°C° 0 mm 1 mps 652 mmHg 93%
    06:00 +14°C° 0 mm 1 mps 652 mmHg 92%
    07:00 +18°C° 0 mm 1 mps 653 mmHg 80%
    08:00 +21°C° 0 mm 1 mps 654 mmHg 69%
    09:00 +24°C° 0 mm 1 mps 655 mmHg 58%
    10:00 +26°C° 0 mm 1 mps 655 mmHg 51%
    11:00 +28°C° 0 mm 1 mps 655 mmHg 44%
    12:00 +30°C° 0 mm 1 mps 655 mmHg 37%
    13:00 +30°C° 0 mm 1 mps 655 mmHg 37%
    14:00 +30°C° 0 mm 1 mps 654 mmHg 37%
    15:00 +31°C° 0 mm 1 mps 653 mmHg 37%
    16:00 +28°C° 0 mm 1 mps 652 mmHg 50%
    17:00 +25°C° 0 mm 1 mps 652 mmHg 63%
    18:00 +21°C° 0 mm 0 mps 651 mmHg 76%
    19:00 +22°C° 0 mm 1 mps 652 mmHg 77%
    20:00 +21°C° 0 mm 1 mps 652 mmHg 78%
    21:00 +20°C° 0 mm 1 mps 652 mmHg 78%
    22:00 +20°C° 0 mm 1 mps 652 mmHg 79%
    23:00 +19°C° 0 mm 1 mps 652 mmHg 79%
    Show more